Regional Weather Roundup
Issued by NWS

Home | Current Version | Previous Version | Graphics & Text | Print | Product List | Glossary On
Versions: 1 2 3 4 5 6 7 8 9 10 11 12 13 14 15 16 17 18 19 20 21 22 23 24 25 26 27 28 29 30 31 32 33 34 35 36 37 38 39 40 41 42 43 44 45 46 47 48 49
000
ASUS45 KCYS 301410
RWRWY

WYOMING REGIONAL WEATHER ROUNDUP
NATIONAL WEATHER SERVICE CHEYENNE WY
800 AM MDT TUE JUN 30 2015

NOTE:  "FAIR" INDICATES FEW OR NO CLOUDS BELOW 12,000 FEET
WITH NO SIGNIFICANT WEATHER AND/OR OBSTRUCTIONS TO VISIBILITY.

WYZ001-301500-
YELLOWSTONE NATIONAL PARK

CITY           SKY/WX    TMP DP  RH WIND       PRES   REMARKS
LK YELLOWSTONE   N/A     62  49  62 E3        30.38R
W YELLOWSTONE  NOT AVBL

$$
WYZ002>013-054>058-071-098>099-301500-
NORTHERN WYOMING

CITY           SKY/WX    TMP DP  RH WIND       PRES   REMARKS
JACKSON        FAIR      61  54  77 CALM      30.29S
CODY           FAIR      70  54  56 CALM      30.12R
GREYBULL       FAIR      74  53  48 SE6       30.01F
WORLAND        FAIR      79  52  38 SE9       30.03F
SHERIDAN       FAIR      69  60  73 CALM      30.01S
BUFFALO        FAIR      73  52  47 W6        30.07F
GILLETTE       FAIR      72  56  57 CALM      30.02F
HULETT         FAIR      68  59  73 SW5       30.02F
NEWCASTLE      FAIR      68  61  77 W3        30.05S

$$
WYZ014>020-022>026-101>103-301500-
CENTRAL WYOMING

CITY           SKY/WX    TMP DP  RH WIND       PRES   REMARKS
BIG PINEY      FAIR      64  51  62 CALM      30.32F
PINEDALE       FAIR      63  46  55 MISG      30.32S
DUBOIS         FAIR      55  46  71 NW7       30.30F
LANDER         FAIR      67  52  58 SE3       30.15F
RIVERTON       FAIR      70  50  49 W5        30.16F
CASPER         FAIR      70  45  40 S8        30.13F
DOUGLAS        FAIR      64  54  69 VRB5      30.12F

$$
WYZ021-027>030-104>119-301500-
SOUTHERN WYOMING

CITY           SKY/WX    TMP DP  RH WIND       PRES   REMARKS
EVANSTON       FAIR      64  47  53 CALM      30.34R
KEMMERER       FAIR      64  45  48 CALM      30.35R
FORT BRIDGER   SUNNY     73  45  35 CALM      30.35S
ROCK SPRINGS   FAIR      68  44  42 S6        30.29S
DIXON          FAIR      67  42  39 SE3       30.31S
RAWLINS        FAIR      65  47  52 CALM      30.29F
SARATOGA       FAIR      64  45  48 S6        30.32F
LARAMIE        FAIR      62  46  55 S7        30.32S
CHEYENNE       FAIR      71  50  47 W10       30.21F
TORRINGTON     FAIR      65  56  72 CALM      30.07F
PINE BLUFFS    FAIR      63  55  77 CALM      30.16F

$$



USA.gov is the U.S. government's official web portal to all federal, state and local government web resources and services.